TimeCST,TemperatureF,Dew PointF,Humidity,Sea Level PressureIn,VisibilityMPH,Wind Direction,Wind SpeedMPH,Gust SpeedMPH,PrecipitationIn,Events,Conditions,WindDirDegrees,DateUTC
12:53 AM,43.0,32.0,65,30.14,10.0,SE,3.5,-,N/A,,Clear,130,2013-02-10 06:53:00
1:53 AM,46.9,28.0,48,30.13,10.0,SSE,4.6,-,N/A,,Clear,160,2013-02-10 07:53:00
2:53 AM,48.9,28.9,46,30.12,10.0,SSE,5.8,-,N/A,,Mostly Cloudy,160,2013-02-10 08:53:00
3:53 AM,48.9,36.0,61,30.13,10.0,South,3.5,-,0.00,,Overcast,190,2013-02-10 09:53:00
4:53 AM,51.1,35.1,54,30.11,10.0,SSE,5.8,-,0.00,,Overcast,160,2013-02-10 10:53:00
6:53 AM,50.0,34.0,54,30.09,10.0,SSE,8.1,-,N/A,,Mostly Cloudy,160,2013-02-10 12:53:00
7:53 AM,53.1,33.1,47,30.09,10.0,SSE,9.2,-,N/A,,Mostly Cloudy,150,2013-02-10 13:53:00
8:53 AM,55.0,34.0,45,30.07,10.0,SSE,11.5,-,N/A,,Scattered Clouds,150,2013-02-10 14:53:00
9:53 AM,60.1,34.0,38,30.04,10.0,SSE,18.4,25.3,N/A,,Partly Cloudy,160,2013-02-10 15:53:00
10:53 AM,62.1,35.1,37,30.01,10.0,South,21.9,27.6,N/A,,Scattered Clouds,170,2013-02-10 16:53:00
11:53 AM,62.1,37.9,41,29.96,10.0,South,21.9,32.2,N/A,,Overcast,180,2013-02-10 17:53:00
12:53 PM,60.1,41.0,49,29.96,10.0,South,17.3,29.9,0.00,Rain,Light Rain,180,2013-02-10 18:53:00
1:38 PM,53.6,48.2,82,29.97,2.5,South,9.2,-,0.09,Rain,Heavy Rain,180,2013-02-10 19:38:00
1:53 PM,53.1,48.0,83,29.97,3.0,South,13.8,19.6,0.15,Rain,Rain,170,2013-02-10 19:53:00
2:08 PM,51.8,48.2,88,29.99,6.0,SSW,17.3,29.9,0.03,Rain,Light Rain,200,2013-02-10 20:08:00
2:19 PM,51.8,46.4,82,29.98,3.0,South,11.5,23.0,0.05,Rain,Rain,190,2013-02-10 20:19:00
2:53 PM,51.1,48.0,89,29.93,6.0,SSE,15.0,21.9,0.09,Rain,Light Rain,150,2013-02-10 20:53:00
3:17 PM,50.0,46.4,87,29.86,9.0,SE,18.4,-,0.01,Rain,Light Rain,140,2013-02-10 21:17:00
3:33 PM,51.8,46.4,82,29.89,10.0,SSE,12.7,20.7,0.02,Rain,Light Rain,150,2013-02-10 21:33:00
3:44 PM,51.8,46.4,82,29.89,10.0,SSE,12.7,21.9,0.02,,Overcast,160,2013-02-10 21:44:00
3:53 PM,51.1,46.9,86,29.90,10.0,SSE,13.8,21.9,0.02,,Overcast,160,2013-02-10 21:53:00
4:53 PM,51.1,46.0,83,29.88,10.0,SSE,10.4,19.6,N/A,,Overcast,160,2013-02-10 22:53:00
5:53 PM,51.1,46.9,86,29.87,10.0,SSE,10.4,-,N/A,,Overcast,150,2013-02-10 23:53:00
6:53 PM,54.0,48.9,83,29.84,10.0,South,11.5,20.7,N/A,,Overcast,180,2013-02-11 00:53:00
7:53 PM,55.9,50.0,80,29.85,10.0,South,18.4,25.3,N/A,,Overcast,180,2013-02-11 01:53:00
8:53 PM,55.9,51.1,84,29.85,10.0,South,16.1,-,N/A,,Overcast,190,2013-02-11 02:53:00
9:49 PM,55.4,51.8,88,29.87,5.0,SSW,13.8,-,0.00,,Overcast,200,2013-02-11 03:49:00
9:53 PM,55.9,52.0,87,29.86,5.0,SSW,10.4,-,0.00,,Overcast,210,2013-02-11 03:53:00
10:26 PM,55.4,53.6,94,29.87,5.0,SSW,11.5,-,N/A,,Overcast,210,2013-02-11 04:26:00
10:53 PM,55.0,53.1,93,29.88,5.0,SSW,10.4,-,0.00,,Overcast,210,2013-02-11 04:53:00
11:53 PM,55.9,53.1,90,29.88,10.0,SSW,10.4,-,N/A,,Mostly Cloudy,210,2013-02-11 05:53:00